Lid_Strength_Index
9 13 14 12 13 15 15 15 16 14 12 13 14 14 12 11 12 11 10 9 9 8 7 7 7 6 6 4 2 2 2 2 1 1 1 1 2 1 1 0 1 1 1 1
12 14 12 11 12 14 15 16 17 15 13 13 14 15 13 12 12 11 11 11 10 9 8 8 8 7 7 6 5 2 2 2 2 1 1 1 1 1 0 0 1 1 1 1
15 14 10 11 13 14 15 16 16 16 15 16 17 19 18 15 13 12 12 10 10 10 10 9 9 9 8 8 7 5 3 2 2 1 1 2 1 2 2 2 2 1 1 1
12 11 11 12 14 14 17 13 14 14 16 21 17 24 18 16 16 15 14 14 13 13 12 11 10 10 10 9 8 8 5 3 2 1 2 2 2 3 3 2 2 2 2 1
15 12 12 13 13 12 16 12 13 14 17 18 19 21 20 18 17 15 15 14 14 14 14 14 13 11 10 10 9 8 7 4 3 2 1 2 2 2 2 3 3 3 2 2
14 11 10 11 11 10 11 14 14 16 17 23 20 20 22 19 17 17 15 15 14 14 13 14 14 13 12 9 8 6 5 4 3 2 2 2 2 3 3 3 3 3 3 3
14 12 11 9 11 11 12 15 20 20 21 23 20 20 20 17 15 15 15 14 14 14 13 12 11 11 10 9 10 9 9 9 5 3 3 3 2 3 3 3 2 2 1 1
18 18 12 10 11 12 13 15 19 23 23 22 18 22 19 15 14 14 14 14 13 13 12 10 10 10 10 10 10 9 9 9 9 8 7 6 5 5 4 4 3 3 2 1
17 16 12 11 9 9 13 15 13 18 24 22 20 19 17 16 15 14 14 14 13 12 11 11 11 10 10 10 9 9 9 9 8 8 8 8 7 7 7 7 6 6 5 4
13 15 13 11 10 10 11 10 16 16 23 24 21 20 19 17 15 14 14 15 13 11 11 11 11 11 10 9 9 9 8 8 8 8 8 8 8 8 8 7 7 7 7 7
11 13 14 11 13 13 13 14 13 13 15 19 22 19 16 15 15 15 14 13 12 11 10 12 12 12 11 11 10 9 9 9 8 8 9 8 8 8 8 8 8 8 8 8
9 12 16 15 12 11 11 12 12 16 19 17 17 18 15 14 14 14 14 14 13 11 11 12 12 11 11 11 10 10 9 9 9 9 9 9 9 9 9 9 8 8 8 8
9 14 17 17 13 13 13 12 11 13 14 16 18 18 14 14 13 13 13 13 12 12 11 12 12 12 11 11 10 9 9 9 9 8 8 9 9 9 9 9 9 8 8 8
8 12 14 16 15 13 14 13 11 12 16 15 15 15 16 14 13 13 13 12 12 12 11 12 12 12 11 10 10 10 9 8 9 9 9 9 9 9 9 9 10 9 9 9
9 14 13 12 13 12 12 13 12 13 13 15 14 14 13 12 12 12 11 11 12 11 12 12 11 10 10 10 10 10 9 9 9 9 9 10 9 10 10 10 10 10 10 10
9 14 13 16 12 13 13 12 12 12 12 12 12 12 10 10 11 11 11 11 11 11 11 11 11 11 10 10 10 10 9 9 9 9 10 10 10 11 11 11 11 11 11 11
11 13 14 17 13 14 16 14 12 11 10 11 14 12 8 11 11 10 9 10 11 10 10 10 10 9 10 9 9 10 10 10 9 10 11 11 11 12 12 12 13 13 12 12
13 15 14 16 17 20 12 10 9 11 10 9 9 9 10 9 8 8 9 9 10 9 9 9 9 9 9 9 10 10 9 9 9 11 11 12 12 12 13 13 13 13 13 12
9 12 15 17 17 14 13 12 12 12 12 9 10 9 9 8 10 9 9 8 8 8 8 7 7 8 9 10 10 10 11 11 11 12 12 13 13 13 13 13 13 13 13 12
9 9 13 15 18 20 13 9 9 10 15 9 9 9 8 9 13 10 6 7 7 8 7 8 8 9 9 9 10 11 11 11 11 12 12 13 13 13 14 13 13 13 13 12
14 13 15 15 17 15 11 10 9 15 13 8 8 8 8 10 9 8 8 9 8 8 8 8 9 9 9 10 10 11 11 11 11 12 13 13 14 14 13 13 13 13 13 13
16 16 16 19 16 18 10 11 13 10 8 9 9 8 8 8 8 8 8 9 9 8 8 9 9 10 10 10 11 11 11 11 12 13 14 15 15 14 13 14 14 14 14 14
14 12 14 13 14 9 8 8 7 7 8 7 10 9 9 9 10 9 9 9 9 9 9 10 10 10 11 12 12 12 12 13 14 15 16 16 16 15 14 15 15 15 14 14
11 9 11 10 9 9 8 7 6 6 7 7 9 9 9 10 10 10 10 11 11 11 10 12 12 12 13 16 15 15 14 15 17 18 18 17 17 17 16 15 15 15 15 15
11 10 11 10 10 9 9 8 7 7 7 7 8 9 9 9 10 10 11 12 12 12 13 14 13 13 15 17 17 18 18 18 19 19 18 18 18 18 18 17 16 16 15 14
8 10 11 12 9 9 8 8 7 7 7 7 8 9 9 9 10 10 12 13 16 15 17 16 17 17 19 19 21 22 22 21 21 19 19 19 19 20 19 19 19 16 14 13